TimeCST,TemperatureF,Dew PointF,Humidity,Sea Level PressureIn,VisibilityMPH,Wind Direction,Wind SpeedMPH,Gust SpeedMPH,PrecipitationIn,Events,Conditions,WindDirDegrees,DateUTC
12:21 AM,46.4,44.6,93,30.22,1.8,Calm,Calm,-,N/A,,Clear,0,2013-11-03 05:21:00
12:35 AM,46.4,42.8,87,30.22,3.0,Calm,Calm,-,N/A,,Clear,0,2013-11-03 05:35:00
12:44 AM,46.4,42.8,87,30.22,1.8,Calm,Calm,-,N/A,,Clear,0,2013-11-03 05:44:00
12:53 AM,45.0,43.0,93,30.22,1.8,Calm,Calm,-,N/A,,Clear,0,2013-11-03 05:53:00
1:01 AM,44.6,42.8,93,30.22,2.0,Calm,Calm,-,N/A,,Clear,0,2013-11-03 06:01:00
1:09 AM,44.6,42.8,93,30.22,1.0,Calm,Calm,-,N/A,,Clear,0,2013-11-03 06:09:00
1:39 AM,44.6,42.8,93,30.22,1.2,Calm,Calm,-,N/A,,Partly Cloudy,0,2013-11-03 06:39:00
1:46 AM,44.6,41.0,87,30.22,0.8,Calm,Calm,-,N/A,,Mist,0,2013-11-03 06:46:00
1:53 AM,44.1,42.1,93,30.22,0.5,Calm,Calm,-,N/A,Fog,Fog,0,2013-11-03 06:53:00
1:05 AM,44.6,42.8,93,30.22,1.0,Calm,Calm,-,N/A,,Mist,0,2013-11-03 07:05:00
1:14 AM,44.6,41.0,87,30.22,1.2,Calm,Calm,-,N/A,,Clear,0,2013-11-03 07:14:00
1:25 AM,42.8,41.0,93,30.22,3.0,Calm,Calm,-,N/A,,Clear,0,2013-11-03 07:25:00
1:48 AM,42.8,39.2,87,30.22,2.5,Calm,Calm,-,N/A,,Clear,0,2013-11-03 07:48:00
1:53 AM,42.1,39.9,92,30.22,4.0,Calm,Calm,-,N/A,,Clear,0,2013-11-03 07:53:00
2:00 AM,42.8,39.2,87,30.22,1.8,Calm,Calm,-,N/A,,Partly Cloudy,0,2013-11-03 08:00:00
2:11 AM,42.8,39.2,87,30.21,3.0,Calm,Calm,-,N/A,,Partly Cloudy,0,2013-11-03 08:11:00
2:53 AM,42.1,39.0,89,30.21,9.0,Calm,Calm,-,N/A,,Clear,0,2013-11-03 08:53:00
3:36 AM,41.0,39.2,93,30.21,6.0,Calm,Calm,-,N/A,,Partly Cloudy,0,2013-11-03 09:36:00
3:53 AM,41.0,39.0,93,30.21,3.0,Calm,Calm,-,N/A,,Partly Cloudy,0,2013-11-03 09:53:00
4:06 AM,41.0,39.2,93,30.21,1.8,Calm,Calm,-,N/A,,Partly Cloudy,0,2013-11-03 10:06:00
4:15 AM,41.0,39.2,93,30.21,1.0,Calm,Calm,-,N/A,,Mist,0,2013-11-03 10:15:00
4:20 AM,39.2,37.4,93,30.21,2.0,Calm,Calm,-,N/A,,Partly Cloudy,0,2013-11-03 10:20:00
4:31 AM,41.0,37.4,87,30.21,1.0,Calm,Calm,-,N/A,,Mist,0,2013-11-03 10:31:00
4:43 AM,39.2,37.4,93,30.21,1.5,Calm,Calm,-,N/A,,Clear,0,2013-11-03 10:43:00
4:53 AM,39.9,37.9,93,30.21,2.0,Calm,Calm,-,N/A,,Clear,0,2013-11-03 10:53:00
5:01 AM,39.2,37.4,93,30.21,6.0,Calm,Calm,-,N/A,,Clear,0,2013-11-03 11:01:00
5:30 AM,39.2,37.4,93,30.21,1.8,Calm,Calm,-,N/A,,Clear,0,2013-11-03 11:30:00
5:45 AM,39.2,37.4,93,30.21,3.0,Calm,Calm,-,N/A,,Clear,0,2013-11-03 11:45:00
5:53 AM,39.9,37.0,89,30.22,1.8,Calm,Calm,-,N/A,,Clear,0,2013-11-03 11:53:00
6:03 AM,39.2,37.4,93,30.21,1.0,Calm,Calm,-,N/A,,Mist,0,2013-11-03 12:03:00
6:11 AM,39.2,37.4,93,30.22,0.8,Calm,Calm,-,N/A,,Mist,0,2013-11-03 12:11:00
6:23 AM,39.2,37.4,93,30.23,1.2,Calm,Calm,-,N/A,,Partly Cloudy,0,2013-11-03 12:23:00
6:26 AM,39.2,37.4,93,30.23,4.0,Calm,Calm,-,N/A,,Partly Cloudy,0,2013-11-03 12:26:00
6:48 AM,39.2,37.4,93,30.24,1.5,Calm,Calm,-,N/A,,Clear,0,2013-11-03 12:48:00
6:53 AM,39.9,37.9,93,30.25,1.5,Calm,Calm,-,N/A,,Clear,0,2013-11-03 12:53:00
6:58 AM,41.0,37.4,87,30.25,4.0,Calm,Calm,-,N/A,,Clear,0,2013-11-03 12:58:00
7:53 AM,48.0,44.1,86,30.27,10.0,Calm,Calm,-,N/A,,Clear,0,2013-11-03 13:53:00
8:53 AM,55.9,46.0,69,30.27,10.0,East,4.6,-,N/A,,Clear,80,2013-11-03 14:53:00
9:53 AM,59.0,42.1,53,30.27,10.0,ENE,6.9,-,N/A,,Clear,70,2013-11-03 15:53:00
10:53 AM,62.1,41.0,46,30.25,10.0,Variable,5.8,-,N/A,,Clear,0,2013-11-03 16:53:00
11:53 AM,64.0,39.9,41,30.21,10.0,ENE,9.2,-,N/A,,Clear,70,2013-11-03 17:53:00
12:53 PM,64.9,41.0,42,30.18,10.0,SE,6.9,-,N/A,,Clear,130,2013-11-03 18:53:00
1:53 PM,66.0,39.9,38,30.15,10.0,Variable,6.9,-,N/A,,Clear,0,2013-11-03 19:53:00
2:53 PM,66.0,39.9,38,30.13,10.0,Calm,Calm,-,N/A,,Clear,0,2013-11-03 20:53:00
3:53 PM,64.9,41.0,42,30.14,10.0,SE,4.6,-,N/A,,Clear,130,2013-11-03 21:53:00
4:53 PM,59.0,48.9,69,30.16,10.0,Calm,Calm,-,N/A,,Clear,0,2013-11-03 22:53:00
5:53 PM,53.1,48.0,83,30.16,10.0,Calm,Calm,-,N/A,,Clear,0,2013-11-03 23:53:00
6:53 PM,48.9,46.0,90,30.17,10.0,Calm,Calm,-,N/A,,Clear,0,2013-11-04 00:53:00
7:53 PM,46.9,44.1,90,30.18,2.0,Calm,Calm,-,N/A,,Clear,0,2013-11-04 01:53:00
8:08 PM,46.4,44.6,93,30.18,3.0,Calm,Calm,-,N/A,,Clear,0,2013-11-04 02:08:00
8:12 PM,46.4,44.6,93,30.18,1.8,Calm,Calm,-,N/A,,Clear,0,2013-11-04 02:12:00
8:31 PM,46.4,44.6,93,30.18,3.0,Calm,Calm,-,N/A,,Clear,0,2013-11-04 02:31:00
8:53 PM,46.0,43.0,89,30.19,6.0,Calm,Calm,-,N/A,,Clear,0,2013-11-04 02:53:00
9:53 PM,46.0,43.0,89,30.18,4.0,Calm,Calm,-,N/A,,Clear,0,2013-11-04 03:53:00
9:57 PM,46.4,42.8,87,30.18,1.8,Calm,Calm,-,N/A,,Clear,0,2013-11-04 03:57:00
10:21 PM,44.6,42.8,93,30.17,3.0,Calm,Calm,-,N/A,,Clear,0,2013-11-04 04:21:00
10:30 PM,44.6,42.8,93,30.17,2.5,Calm,Calm,-,N/A,,Clear,0,2013-11-04 04:30:00
10:38 PM,44.6,42.8,93,30.18,6.0,Calm,Calm,-,N/A,,Clear,0,2013-11-04 04:38:00
10:53 PM,44.1,42.1,93,30.17,7.0,Calm,Calm,-,N/A,,Clear,0,2013-11-04 04:53:00